TimeCDT,TemperatureF,Dew PointF,Humidity,Sea Level PressureIn,VisibilityMPH,Wind Direction,Wind SpeedMPH,Gust SpeedMPH,PrecipitationIn,Events,Conditions,WindDirDegrees,DateUTC
12:52 AM,63.0,61.0,93,29.85,10.0,SSE,10.4,-,N/A,,Clear,160,2013-05-16 05:52:00
1:32 AM,63.0,62.1,97,29.89,9.0,SSE,10.4,-,N/A,,Partly Cloudy,160,2013-05-16 06:32:00
1:52 AM,63.0,62.1,97,29.86,9.0,SSE,11.5,-,N/A,,Partly Cloudy,160,2013-05-16 06:52:00
2:52 AM,63.0,62.1,97,29.86,7.0,SSE,10.4,-,N/A,,Mostly Cloudy,160,2013-05-16 07:52:00
3:52 AM,63.0,61.0,93,29.86,9.0,SSE,9.2,-,N/A,,Partly Cloudy,150,2013-05-16 08:52:00
4:52 AM,63.0,61.0,93,29.88,10.0,SSE,8.1,-,N/A,,Clear,150,2013-05-16 09:52:00
5:52 AM,63.0,61.0,93,29.88,10.0,East,10.4,18.4,N/A,,Overcast,80,2013-05-16 10:52:00
6:52 AM,63.0,61.0,93,29.88,10.0,SSE,9.2,-,N/A,,Overcast,160,2013-05-16 11:52:00
7:52 AM,64.0,61.0,90,29.89,10.0,SE,9.2,-,N/A,,Overcast,140,2013-05-16 12:52:00
8:52 AM,64.9,61.0,87,29.91,10.0,SSE,10.4,-,N/A,,Mostly Cloudy,160,2013-05-16 13:52:00
9:47 AM,64.4,60.8,88,29.92,10.0,SE,10.4,-,N/A,,Mostly Cloudy,140,2013-05-16 14:47:00
9:52 AM,64.9,60.1,84,29.90,10.0,SSE,10.4,-,N/A,,Overcast,150,2013-05-16 14:52:00
10:52 AM,66.0,60.1,81,29.90,10.0,SE,11.5,-,N/A,,Overcast,140,2013-05-16 15:52:00
11:52 AM,64.9,60.1,84,29.89,10.0,SSE,8.1,-,N/A,,Overcast,160,2013-05-16 16:52:00
12:52 PM,64.9,60.1,84,29.88,10.0,SSE,11.5,-,N/A,,Overcast,150,2013-05-16 17:52:00
1:36 PM,66.0,60.1,81,29.91,10.0,SSE,11.5,-,N/A,,Overcast,160,2013-05-16 18:36:00
1:52 PM,64.9,61.0,87,29.89,10.0,South,8.1,-,0.00,Rain,Light Rain,170,2013-05-16 18:52:00
2:52 PM,64.0,61.0,90,29.89,8.0,SSE,10.4,-,0.02,Rain,Light Rain,150,2013-05-16 19:52:00
3:06 PM,64.9,62.1,90,29.91,10.0,SE,11.5,-,0.01,Rain,Light Rain,140,2013-05-16 20:06:00
3:41 PM,64.9,62.1,90,29.90,10.0,SE,12.7,-,0.01,Rain,Light Rain,140,2013-05-16 20:41:00
3:45 PM,64.9,62.1,90,29.90,10.0,SE,10.4,-,0.01,Rain,Light Rain,130,2013-05-16 20:45:00
3:52 PM,64.9,62.1,90,29.88,10.0,SE,10.4,-,0.01,Rain,Light Rain,140,2013-05-16 20:52:00
4:03 PM,66.0,62.1,87,29.89,10.0,SE,11.5,-,0.00,Rain,Light Rain,140,2013-05-16 21:03:00
4:52 PM,64.9,62.1,90,29.86,10.0,SE,9.2,-,0.00,Rain,Light Rain,130,2013-05-16 21:52:00
5:05 PM,64.9,61.0,87,29.88,10.0,SSE,11.5,-,0.00,Rain,Light Rain,150,2013-05-16 22:05:00
5:52 PM,64.9,60.1,84,29.86,10.0,SSE,12.7,-,0.00,,Overcast,150,2013-05-16 22:52:00
6:24 PM,64.0,60.1,87,29.87,10.0,SE,11.5,-,N/A,,Overcast,130,2013-05-16 23:24:00
6:52 PM,63.0,60.1,90,29.85,10.0,ESE,11.5,-,N/A,,Overcast,120,2013-05-16 23:52:00
7:11 PM,62.1,59.0,90,29.86,10.0,SE,12.7,-,N/A,,Overcast,130,2013-05-17 00:11:00
7:52 PM,62.1,59.0,90,29.85,10.0,SE,13.8,-,N/A,,Overcast,140,2013-05-17 00:52:00
8:52 PM,62.1,59.0,90,29.85,10.0,SSE,10.4,-,N/A,,Overcast,150,2013-05-17 01:52:00
9:52 PM,62.1,60.1,93,29.88,10.0,SSE,6.9,-,N/A,,Overcast,160,2013-05-17 02:52:00
10:52 PM,62.1,60.1,93,29.89,10.0,SSE,3.5,-,N/A,,Overcast,150,2013-05-17 03:52:00
11:37 PM,62.1,60.1,93,29.90,10.0,SE,6.9,-,N/A,,Overcast,130,2013-05-17 04:37:00
11:52 PM,62.1,60.1,93,29.88,10.0,SSE,6.9,-,N/A,,Overcast,150,2013-05-17 04:52:00